This is the latest recevied weather packets stored in our database for station/object R8AHC-13. If no packets are shown the sender has not sent any weather packets the latest 10 day(s).
| Time | Temp. | Humidity | Pressure | Rain* | Wind** | Luminosity | Snow |
|---|---|---|---|---|---|---|---|
| 1777837025 | 10° C | 66% | 1018 hPa | - | 1.79 m/s, 180° | - | - |
| 1777833423 | 10° C | 66% | 1018 hPa | - | 4.02 m/s, 220° | - | - |
| 1777829821 | 10° C | 66% | 1018 hPa | - | 4.92 m/s, 220° | - | - |
| 1777826222 | 10° C | 66% | 1020 hPa | - | 3.13 m/s, 230° | - | - |
| 1777822622 | 12.78° C | 47% | 1020 hPa | - | 3.13 m/s, 220° | - | - |
| 1777819022 | 13.89° C | 28% | 1020 hPa | - | 4.92 m/s, 230° | - | - |
| 1777815422 | 13.89° C | 28% | 1020 hPa | - | 5.81 m/s, 230° | - | - |
| 1777811822 | 13.89° C | 28% | 1020 hPa | - | 8.05 m/s, 180° | - | - |
| 1777808221 | 13.89° C | 28% | 1020 hPa | - | 4.92 m/s, 200° | - | - |
| 1777804622 | 13.89° C | 28% | 1021 hPa | - | 4.02 m/s, 240° | - | - |
| 1777801022 | 13.89° C | 28% | 1021 hPa | - | 3.13 m/s, 250° | - | - |
| 1777797421 | 13.89° C | 28% | 1022 hPa | - | 4.92 m/s, 230° | - | - |
| 1777793822 | 8.89° C | 43% | 1022 hPa | - | 5.81 m/s, 260° | - | - |
| 1777790221 | 8.89° C | 43% | 1022 hPa | - | 4.92 m/s, 270° | - | - |
| 1777786622 | 8.89° C | 43% | 1023 hPa | - | 5.81 m/s, 290° | - | - |
| 1777783022 | 8.89° C | 43% | 1024 hPa | - | 5.81 m/s, 250° | - | - |
| 1777779421 | 8.89° C | 43% | 1024 hPa | - | 4.02 m/s, 260° | - | - |
| 1777775822 | 2.78° C | 56% | 1024 hPa | - | 4.02 m/s, 270° | - | - |
| 1777772222 | 2.78° C | 56% | 1024 hPa | - | 4.02 m/s, 230° | - | - |
| 1777768622 | 2.78° C | 56% | 1023 hPa | - | 3.13 m/s, 260° | - | - |
| 1777765022 | 0° C | 69% | 1023 hPa | - | 4.02 m/s, 280° | - | - |
| 1777761422 | 7.78° C | 57% | 1023 hPa | - | 4.92 m/s, 280° | - | - |
| 1777757822 | 7.78° C | 57% | 1023 hPa | - | 4.92 m/s, 280° | - | - |
| 1777754221 | 7.78° C | 57% | 1023 hPa | - | 4.02 m/s, 270° | - | - |
| 1777750622 | 7.78° C | 57% | 1022 hPa | - | 4.02 m/s, 270° | - | - |
* Rain since midnight (hover to see other rain measurements)
** Current wind speed in m/s (hover to see current wind gust speed)